x

North Huron - 32nm Northeast Of Alpena, Mi (45003) Wave Buoy

5:50pm - Thu 18th Sep 2014 All times are CDT. -5 hours from GMT.

  • Sig Wave height 1.0ft
  • Swell Direction
  • Peak Period 4s
  • Average Period 3s
  • Wind
  • Sea Temp 55°f
  • Air Temp 49°f
  • Sea Pressure 1023.8mb
  • North Huron - 32nm Northeast Of Alpena, Mi
  • North Huron - 32nm Northeast Of Alpena, Mi

More Historic Weather Station data

Upgrade to MSW Pro to gain access to the past 30 days of data for over 8000 Wavebouys and Weather Stations around the globe.

Join Pro

Comparision Forecast

View Surf forecast
   
Thu 09/18 5:50pm 1ft 4s 3s  -  2 mph 1023.8mb 55f 49f
4:50pm 1ft 4s 3s 2
mph
1023.7mb 55f 49f
3:50pm 1.3ft 4s 4s 2
mph
1024.1mb 55f 48f
2:50pm 1.3ft 4s 4s 2 4 mph 1024.4mb 55f 47f
1:50pm 1.6ft 4s 4s 4 7 mph 1024.5mb 55f 47f
12:50pm 1.6ft 4s 4s 4 7 mph 1024.7mb 55f 47f
11:50am 2ft 4s 4s 9 11 mph 1024.3mb 55f 47f
10:50am 2.5ft 4s 4s 9 11 mph 1023.8mb 55f 46f
9:50am 2.5ft 4s 4s 13 16 mph 1023.4mb 55f 46f
8:50am 2.5ft 4s 4s 13 18 mph 1023.1mb 55f 45f
7:50am 2ft 4s 3s 13 20 mph 1022.4mb 56f 45f
6:50am 2.5ft 4s 3s 16 18 mph 1022mb 56f 45f
5:50am 2.5ft 4s 4s 13 18 mph 1021.2mb 56f 45f
4:50am 2.5ft 4s 4s 18 20 mph 1020.4mb 56f 45f
3:50am 2.5ft 4s 4s 18 20 mph 1019.9mb 56f 45f
2:50am 2.5ft 4s 3s 20 22 mph 1019.1mb 55f 46f
1:50am 2.5ft 4s 4s 18 22 mph 1018.8mb 54f 47f
12:50am 3ft 4s 4s 16 20 mph 1018.3mb 54f 48f
Wed 09/17 11:50pm 3ft 4s 4s 16 20 mph 1017.7mb 54f 49f
10:50pm 2.5ft 4s 4s 16 20 mph 1017mb 55f 51f
9:50pm 2.5ft 4s 3s 13 18 mph 1016.2mb 55f 52f
8:50pm 2.5ft 4s 3s 16 20 mph 1015.6mb 55f 53f
7:50pm 1.6ft 3s 3s 18 22 mph 1014.8mb 55f 55f
6:50pm 1ft 3s 3s 16 18 mph 1013.6mb 56f 57f
5:50pm 0.7ft  -  3s 9 11 mph 1013.5mb 56f 60f
4:50pm 0.7ft  -  3s 7 9 mph 1013.3mb 56f 57f
3:50pm 0.7ft  -  3s 7
mph
1013.2mb 56f 56f
2:50pm 0.7ft  -  3s 4 7 mph 1013mb 55f 56f
1:50pm 0.7ft  -  3s 9
mph
1013.1mb 55f 55f
12:50pm 0.7ft  -  3s 7 9 mph 1013.6mb 53f 54f
11:50am 1ft 3s 3s 11
mph
1013.7mb 53f 54f
10:50am 1ft 2s 3s 11 13 mph 1014.2mb 53f 53f
9:50am 1ft 4s 3s 11 16 mph 1014.3mb 53f 53f
8:50am 1ft 4s 3s 11
mph
1014.5mb 54f 52f
7:50am 1.3ft 4s 3s 9 11 mph 1014.7mb 54f 52f
6:50am 1.6ft 4s 3s 9 11 mph 1014.9mb 54f 52f
5:50am 2ft 4s 3s 9
mph
1014.8mb 55f 53f
4:50am 2ft 4s 4s 9 11 mph 1014.8mb 55f 53f
3:50am 2.5ft 4s 3s 13 16 mph 1014.8mb 55f 53f
2:50am 2ft 4s 3s 13 16 mph 1015mb 55f 53f
1:50am 2ft 5s 3s 13 16 mph 1015.2mb 55f 53f
12:50am 1.6ft 5s 3s 13 16 mph 1015.5mb 55f 54f
Tue 09/16 11:50pm 1.3ft 4s 3s 13 16 mph 1015.9mb 55f 54f
10:50pm 1.3ft 4s 3s 11 13 mph 1015.8mb 55f 55f
9:50pm 1ft 4s 3s 11 13 mph 1015.9mb 55f 55f
8:50pm 1ft 4s 3s 9
mph
1016.1mb 55f 55f
7:50pm 0.7ft  -  3s 4
mph
1016.1mb 55f 54f
6:50pm 0.7ft  -  3s 4
mph
1016.3mb 53f 53f
5:50pm 0.7ft  -  3s 4 7 mph 1016.6mb 53f 54f
4:50pm 1ft 3s 3s 7 9 mph 1016.6mb 54f 55f
3:50pm 1.3ft 3s 3s 7
mph
1017mb 54f 56f
2:50pm 1.3ft 4s 3s 7
mph
1017.3mb 54f 55f
1:50pm 1.6ft 4s 3s 4 7 mph 1017.8mb 54f 54f
12:50pm 1.6ft 4s 3s 7 9 mph 1018.2mb 54f 54f
11:50am 1.6ft 4s 3s 9 11 mph 1018.7mb 55f 53f
10:50am 1.6ft 4s 3s 13 16 mph 1018.8mb 55f 53f
9:50am 2ft 4s 4s 13 16 mph 1019.3mb 55f 52f
8:50am 1.6ft 5s 4s 13 16 mph 1019.4mb 55f 52f
7:50am 2ft 4s 4s 13 16 mph 1019.5mb 55f 52f
6:50am 2ft 4s 4s 13 16 mph 1019.5mb 55f 53f
5:50am 2ft 4s 4s 16 18 mph 1019mb 54f 53f
4:50am 1.6ft 4s 3s 16 18 mph 1018.7mb 54f 53f
3:50am 1.6ft 4s 3s 16 18 mph 1018.7mb 53f 53f
2:50am 1.6ft 4s 3s 13 18 mph 1018.5mb 52f 53f
1:50am 2ft 4s 3s 11 13 mph 1018.3mb 51f 53f
12:50am 1.6ft 4s 3s 16 18 mph 1018.3mb 50f 53f
Mon 09/15 11:50pm 1.6ft 4s 3s 13 16 mph 1018.2mb 51f 53f
10:50pm 1.3ft 4s 3s 9 11 mph 1018.4mb 51f 53f
9:50pm 1.6ft 4s 3s 9 11 mph 1018.4mb 52f 53f
8:50pm 1.6ft 4s 4s 9 11 mph 1018.3mb 53f 54f
7:50pm 1.6ft 4s 4s 9
mph
1018.1mb 54f 53f
6:50pm 2ft 4s 4s 9 11 mph 1017.8mb 54f 53f
5:50pm 1.6ft 5s 4s 9 11 mph 1017.7mb 54f 53f
4:50pm 2ft 4s 4s 9
mph
1017.8mb 54f 53f
3:50pm 2ft 5s 4s 7
mph
1017.8mb 54f 53f
2:50pm 2ft 4s 4s 7 9 mph 1018mb 54f 54f
1:50pm 2ft 5s 4s 9 11 mph 1018.5mb 53f 53f
12:50pm 2ft 5s 4s 13 16 mph 1018.6mb 53f 53f
11:50am 2ft 5s 4s 9 11 mph 1018.6mb 52f 52f
10:50am 2ft 5s 4s 7 9 mph 1018.9mb 51f 52f
9:50am 2ft 5s 4s 9
mph
1018.8mb 51f 51f
8:50am 2ft 5s 4s 11 13 mph 1018.9mb 50f 52f
7:50am 2.5ft 5s 4s 11 13 mph 1018.7mb 51f 52f
6:50am 2.5ft 5s 4s 13 16 mph 1018.6mb 51f 53f
5:50am 2.5ft 4s 3s 13 18 mph 1018.2mb 52f 53f
4:50am 2.5ft 4s 3s 13 16 mph 1018.6mb 53f 53f
3:50am 2.5ft 3s 3s 16 20 mph 1018.2mb 54f 54f
2:50am 2ft 4s 3s 11 13 mph 1018.9mb 54f 54f
1:50am 2ft 3s 3s 13 18 mph 1019mb 53f 54f
12:50am 2ft 3s 3s 16 18 mph 1019.1mb 53f 54f